Zurück zum Katalog

QIANFAN-80

AktivKommunikationPO
NORAD 63166·PAYLOAD·🇨🇳 China

Gestartet Mar 11, 2025 von Wenchang Space Launch Site

Loading…

Nächste Überflüge (nächste 24 Stunden)

TLE

AktuellSource: Space-Track

Epoche: Sep 14, 2026, 21:55 UTC

1 63166U 25046H   26257.91365938  .00000058  00000-0  70470-4 0  9990
2 63166  88.9652 291.1351 0015303  59.9388 300.3278 13.51029461 84825

Verfolge QIANFAN-80 in Echtzeit mit AllMySat

Download on the App Store